| time (UTC) | temp F | wind direction | speed MPH | gust MPH | rain 1hr in | rain 24hr in | rain mn in | humidity % | barometer mb |
| 20260508225207 | 55 | 0 | 6.0 | 11.0 | 0.00 | 0.00 | 0.00 | 54 | 1011.6 |
| 20260508224657 | 55 | 0 | 6.0 | 11.0 | 0.00 | 0.00 | 0.00 | 53 | 1011.5 |
| 20260508224146 | 55 | 0 | 5.0 | 10.0 | 0.00 | 0.00 | 0.00 | 53 | 1011.5 |
| 20260508223637 | 55 | 0 | 6.0 | 8.0 | 0.00 | 0.00 | 0.00 | 54 | 1011.4 |
| 20260508223127 | 55 | 0 | 4.0 | 10.0 | 0.00 | 0.00 | 0.00 | 54 | 1011.3 |
| 20260508222617 | 55 | 0 | 6.0 | 11.0 | 0.00 | 0.00 | 0.00 | 53 | 1011.1 |
| 20260508222106 | 55 | 0 | 8.0 | 11.0 | 0.00 | 0.00 | 0.00 | 52 | 1011.1 |
| 20260508221557 | 55 | 0 | 8.0 | 11.0 | 0.00 | 0.00 | 0.00 | 52 | 1011.2 |
| 20260508221046 | 56 | 0 | 7.0 | 11.0 | 0.00 | 0.00 | 0.00 | 51 | 1011.2 |
| 20260508220026 | 55 | 0 | 6.0 | 9.0 | 0.00 | 0.00 | 0.00 | 51 | 1011.0 |
| 20260508215516 | 56 | 0 | 4.0 | 8.0 | 0.00 | 0.00 | 0.00 | 51 | 1010.9 |
| 20260508214456 | 56 | 0 | 4.0 | 8.0 | 0.00 | 0.00 | 0.00 | 49 | 1010.9 |
| 20260508213947 | 56 | 0 | 4.0 | 7.0 | 0.00 | 0.00 | 0.00 | 49 | 1010.8 |
| 20260508213435 | 56 | 0 | 4.0 | 5.0 | 0.00 | 0.00 | 0.00 | 49 | 1010.8 |
| 20260508212925 | 56 | 0 | 2.0 | 4.0 | 0.00 | 0.00 | 0.00 | 50 | 1011.0 |
| 20260508212415 | 57 | 0 | 2.0 | 4.0 | 0.00 | 0.00 | 0.00 | 48 | 1010.8 |
| 20260508211906 | 57 | 0 | 2.0 | 4.0 | 0.00 | 0.00 | 0.00 | 46 | 1010.8 |
| 20260508211354 | 57 | 0 | 2.0 | 5.0 | 0.00 | 0.00 | 0.00 | 45 | 1010.7 |
| 20260508210846 | 57 | 0 | 2.0 | 5.0 | 0.00 | 0.00 | 0.00 | 45 | 1010.5 |
| 20260508210335 | 58 | 0 | 2.0 | 5.0 | 0.00 | 0.00 | 0.00 | 44 | 1010.5 |
| 20260508205315 | 58 | 0 | 4.0 | 8.0 | 0.00 | 0.00 | 0.00 | 43 | 1010.4 |
| 20260508204804 | 58 | 0 | 3.0 | 8.0 | 0.00 | 0.00 | 0.00 | 43 | 1010.7 |
| 20260508204253 | 58 | 0 | 3.0 | 8.0 | 0.00 | 0.00 | 0.00 | 42 | 1010.7 |
| 20260508202723 | 58 | 0 | 4.0 | 8.0 | 0.00 | 0.00 | 0.00 | 41 | 1010.7 |
| 20260508202213 | 59 | 0 | 4.0 | 13.0 | 0.00 | 0.00 | 0.00 | 40 | 1010.8 |
| 20260508201701 | 60 | 0 | 5.0 | 14.0 | 0.00 | 0.00 | 0.00 | 39 | 1011.0 |
| 20260508200641 | 61 | 0 | 9.0 | 14.0 | 0.00 | 0.00 | 0.00 | 37 | 1010.8 |
| 20260508200130 | 61 | 0 | 4.0 | 9.0 | 0.00 | 0.00 | 0.00 | 37 | 1011.0 |
| 20260508195620 | 61 | 0 | 5.0 | 12.0 | 0.00 | 0.00 | 0.00 | 37 | 1010.8 |
| 20260508195111 | 62 | 0 | 4.0 | 12.0 | 0.00 | 0.00 | 0.00 | 35 | 1010.7 |
| 20260508194600 | 62 | 0 | 5.0 | 15.0 | 0.00 | 0.00 | 0.00 | 36 | 1010.8 |
| 20260508193539 | 62 | 0 | 8.0 | 14.0 | 0.00 | 0.00 | 0.00 | 36 | 1010.4 |
| 20260508193033 | 62 | 0 | 7.0 | 12.0 | 0.00 | 0.00 | 0.00 | 34 | 1010.4 |
| 20260508192018 | 62 | 0 | 4.0 | 13.0 | 0.00 | 0.00 | 0.00 | 35 | 1010.5 |
| 20260508191459 | 62 | 0 | 4.0 | 10.0 | 0.00 | 0.00 | 0.00 | 34 | 1010.3 |
| 20260508190949 | 62 | 0 | 4.0 | 10.0 | 0.00 | 0.00 | 0.00 | 35 | 1010.8 |
| 20260508190439 | 62 | 0 | 4.0 | 11.0 | 0.00 | 0.00 | 0.00 | 34 | 1010.4 |
| 20260508185929 | 62 | 0 | 5.0 | 11.0 | 0.00 | 0.00 | 0.00 | 33 | 1010.7 |
| 20260508185419 | 62 | 0 | 4.0 | 11.0 | 0.00 | 0.00 | 0.00 | 34 | 1010.8 |
| 20260508184909 | 62 | 0 | 4.0 | 11.0 | 0.00 | 0.00 | 0.00 | 33 | 1010.9 |
| 20260508184359 | 62 | 0 | 6.0 | 12.0 | 0.00 | 0.00 | 0.00 | 33 | 1010.9 |
| 20260508183849 | 62 | 0 | 7.0 | 12.0 | 0.00 | 0.00 | 0.00 | 32 | 1011.0 |
| 20260508183339 | 62 | 0 | 6.0 | 12.0 | 0.00 | 0.00 | 0.00 | 32 | 1010.8 |
| 20260508182829 | 61 | 0 | 4.0 | 15.0 | 0.00 | 0.00 | 0.00 | 33 | 1011.0 |
| 20260508182318 | 62 | 0 | 5.0 | 15.0 | 0.00 | 0.00 | 0.00 | 32 | 1011.1 |
| 20260508181258 | 62 | 0 | 3.0 | 9.0 | 0.00 | 0.00 | 0.00 | 35 | 1011.2 |
| 20260508180748 | 61 | 0 | 4.0 | 9.0 | 0.00 | 0.00 | 0.00 | 35 | 1011.1 |
| 20260508180238 | 61 | 0 | 3.0 | 9.0 | 0.00 | 0.00 | 0.00 | 34 | 1011.2 |
| 20260508175727 | 61 | 0 | 2.0 | 9.0 | 0.00 | 0.00 | 0.00 | 36 | 1011.5 |
| 20260508175218 | 61 | 0 | 4.0 | 9.0 | 0.00 | 0.00 | 0.00 | 33 | 1011.5 |
| 20260508174708 | 61 | 0 | 5.0 | 11.0 | 0.00 | 0.00 | 0.00 | 34 | 1011.2 |
| 20260508174157 | 61 | 0 | 8.0 | 11.0 | 0.00 | 0.00 | 0.00 | 33 | 1011.5 |
| 20260508173647 | 60 | 0 | 7.0 | 13.0 | 0.00 | 0.00 | 0.00 | 32 | 1011.5 |
| 20260508173137 | 60 | 0 | 8.0 | 13.0 | 0.00 | 0.00 | 0.00 | 33 | 1011.7 |
| 20260508172631 | 60 | 0 | 7.0 | 13.0 | 0.00 | 0.00 | 0.00 | 33 | 1011.7 |
| 20260508172121 | 60 | 0 | 4.0 | 13.0 | 0.00 | 0.00 | 0.00 | 32 | 1011.8 |
| 20260508171610 | 60 | 0 | 5.0 | 11.0 | 0.00 | 0.00 | 0.00 | 34 | 1011.9 |
| 20260508171100 | 60 | 0 | 3.0 | 12.0 | 0.00 | 0.00 | 0.00 | 34 | 1012.1 |
| 20260508170550 | 60 | 0 | 7.0 | 12.0 | 0.00 | 0.00 | 0.00 | 32 | 1012.2 |
| 20260508170043 | 60 | 0 | 4.0 | 15.0 | 0.00 | 0.00 | 0.00 | 33 | 1012.3 |
| 20260508165529 | 59 | 0 | 6.0 | 15.0 | 0.00 | 0.00 | 0.00 | 33 | 1012.3 |
| 20260508164513 | 59 | 0 | 8.0 | 14.0 | 0.00 | 0.00 | 0.00 | 31 | 1012.2 |
| 20260508163959 | 58 | 0 | 7.0 | 13.0 | 0.00 | 0.00 | 0.00 | 31 | 1012.4 |
| 20260508163449 | 58 | 0 | 7.0 | 15.0 | 0.00 | 0.00 | 0.00 | 30 | 1012.6 |
| 20260508162428 | 58 | 0 | 11.0 | 18.0 | 0.00 | 0.00 | 0.00 | 29 | 1012.7 |
| 20260508161919 | 58 | 0 | 9.0 | 18.0 | 0.00 | 0.00 | 0.00 | 29 | 1012.4 |
| 20260508161408 | 58 | 0 | 10.0 | 19.0 | 0.00 | 0.00 | 0.00 | 29 | 1012.5 |
| 20260508160858 | 58 | 0 | 11.0 | 19.0 | 0.00 | 0.00 | 0.00 | 28 | 1012.5 |
| 20260508155838 | 57 | 0 | 7.0 | 17.0 | 0.00 | 0.00 | 0.00 | 33 | 1012.8 |
| 20260508154308 | 57 | 0 | 11.0 | 19.0 | 0.00 | 0.00 | 0.00 | 31 | 1012.8 |
| 20260508153757 | 56 | 0 | 10.0 | 0.0 | 0.00 | 0.00 | 0.00 | 33 | 1012.9 |
| 20260508153508 | 56 | 0 | 13.0 | 19.0 | 0.00 | 0.00 | 0.00 | 32 | 1013.0 |
| 20260508152958 | 56 | 0 | 9.0 | 19.0 | 0.00 | 0.00 | 0.00 | 33 | 1012.9 |
| 20260508152447 | 56 | 0 | 12.0 | 22.0 | 0.00 | 0.00 | 0.00 | 33 | 1013.1 |
| 20260508151938 | 56 | 0 | 11.0 | 22.0 | 0.00 | 0.00 | 0.00 | 33 | 1013.1 |
| 20260508151427 | 56 | 0 | 9.0 | 20.0 | 0.00 | 0.00 | 0.00 | 33 | 1013.2 |
| 20260508150407 | 55 | 0 | 9.0 | 19.0 | 0.00 | 0.00 | 0.00 | 36 | 1013.4 |
| 20260508144327 | 54 | 0 | 14.0 | 18.0 | 0.00 | 0.00 | 0.00 | 38 | 1013.9 |
| 20260508143306 | 53 | 0 | 11.0 | 18.0 | 0.00 | 0.00 | 0.00 | 39 | 1013.9 |
| 20260508142756 | 52 | 0 | 8.0 | 16.0 | 0.00 | 0.00 | 0.00 | 40 | 1013.9 |
| 20260508141736 | 53 | 0 | 11.0 | 17.0 | 0.00 | 0.00 | 0.00 | 43 | 1014.2 |
| 20260508141227 | 52 | 0 | 11.0 | 19.0 | 0.00 | 0.00 | 0.00 | 44 | 1014.1 |
| 20260508140715 | 52 | 0 | 8.0 | 19.0 | 0.00 | 0.00 | 0.00 | 44 | 1014.2 |
| 20260508140207 | 51 | 0 | 8.0 | 16.0 | 0.00 | 0.00 | 0.00 | 47 | 1014.1 |
| 20260508135656 | 51 | 0 | 10.0 | 16.0 | 0.00 | 0.00 | 0.00 | 46 | 1014.3 |
| 20260508135145 | 51 | 0 | 11.0 | 15.0 | 0.00 | 0.00 | 0.00 | 46 | 1014.0 |
| 20260508134125 | 50 | 0 | 8.0 | 18.0 | 0.00 | 0.00 | 0.00 | 48 | 1014.2 |
| 20260508133616 | 50 | 0 | 8.0 | 15.0 | 0.00 | 0.00 | 0.00 | 47 | 1014.3 |
| 20260508133106 | 50 | 0 | 7.0 | 14.0 | 0.00 | 0.00 | 0.00 | 48 | 1014.2 |
| 20260508131535 | 50 | 0 | 10.0 | 16.0 | 0.00 | 0.00 | 0.00 | 48 | 1014.4 |
| 20260508131025 | 49 | 0 | 8.0 | 15.0 | 0.00 | 0.00 | 0.00 | 49 | 1014.2 |
| 20260508130514 | 49 | 0 | 9.0 | 15.0 | 0.00 | 0.00 | 0.00 | 48 | 1014.2 |
| 20260508130005 | 49 | 0 | 7.0 | 14.0 | 0.00 | 0.00 | 0.00 | 49 | 1013.9 |
| 20260508125455 | 49 | 0 | 7.0 | 15.0 | 0.00 | 0.00 | 0.00 | 48 | 1013.9 |
| 20260508124944 | 49 | 0 | 8.0 | 15.0 | 0.00 | 0.00 | 0.00 | 48 | 1014.4 |
| 20260508123924 | 49 | 0 | 6.0 | 13.0 | 0.00 | 0.00 | 0.00 | 50 | 1014.1 |
| 20260508123415 | 48 | 0 | 8.0 | 15.0 | 0.00 | 0.00 | 0.00 | 50 | 1014.2 |
| 20260508122904 | 48 | 0 | 8.0 | 16.0 | 0.00 | 0.00 | 0.00 | 49 | 1013.9 |
| 20260508122354 | 47 | 0 | 7.0 | 16.0 | 0.00 | 0.00 | 0.00 | 51 | 1013.8 |
| 20260508121844 | 47 | 0 | 6.0 | 14.0 | 0.00 | 0.00 | 0.00 | 51 | 1014.0 |
| 20260508121334 | 47 | 0 | 8.0 | 13.0 | 0.00 | 0.00 | 0.00 | 51 | 1013.8 |
| 20260508120314 | 46 | 0 | 8.0 | 17.0 | 0.00 | 0.00 | 0.00 | 53 | 1013.4 |
| 20260508115804 | 46 | 0 | 8.0 | 12.0 | 0.00 | 0.00 | 0.00 | 55 | 1013.8 |
| 20260508114743 | 45 | 0 | 5.0 | 12.0 | 0.00 | 0.00 | 0.00 | 58 | 1013.6 |
| 20260508114233 | 44 | 0 | 6.0 | 13.0 | 0.00 | 0.00 | 0.00 | 59 | 1013.6 |
| 20260508113723 | 44 | 0 | 8.0 | 13.0 | 0.00 | 0.00 | 0.00 | 59 | 1013.7 |
| 20260508113213 | 43 | 0 | 5.0 | 11.0 | 0.00 | 0.00 | 0.00 | 60 | 1013.6 |
| 20260508112702 | 43 | 0 | 5.0 | 11.0 | 0.00 | 0.00 | 0.00 | 60 | 1013.4 |
| 20260508112153 | 42 | 0 | 6.0 | 11.0 | 0.00 | 0.00 | 0.00 | 61 | 1013.4 |
| 20260508111642 | 42 | 0 | 6.0 | 11.0 | 0.00 | 0.00 | 0.00 | 62 | 1013.4 |
| 20260508111132 | 42 | 0 | 6.0 | 11.0 | 0.00 | 0.00 | 0.00 | 62 | 1013.6 |
| 20260508110624 | 42 | 0 | 6.0 | 11.0 | 0.00 | 0.00 | 0.00 | 61 | 1013.5 |
| 20260508104220 | 43 | 0 | 6.0 | 11.0 | 0.00 | 0.00 | 0.00 | 59 | 1013.5 |
| 20260508103710 | 43 | 0 | 5.0 | 11.0 | 0.00 | 0.00 | 0.00 | 59 | 1013.4 |
| 20260508103200 | 43 | 0 | 6.0 | 9.0 | 0.00 | 0.00 | 0.00 | 59 | 1013.7 |
| 20260508102651 | 43 | 0 | 5.0 | 10.0 | 0.00 | 0.00 | 0.00 | 59 | 1013.5 |
| 20260508102139 | 43 | 0 | 7.0 | 11.0 | 0.00 | 0.00 | 0.00 | 59 | 1013.4 |
| 20260508101629 | 43 | 0 | 7.0 | 11.0 | 0.00 | 0.00 | 0.00 | 59 | 1013.2 |
| 20260508101119 | 43 | 0 | 5.0 | 11.0 | 0.00 | 0.00 | 0.00 | 59 | 1013.6 |
| 20260508100609 | 43 | 0 | 7.0 | 14.0 | 0.00 | 0.00 | 0.00 | 59 | 1013.3 |
| 20260508095549 | 43 | 0 | 6.0 | 11.0 | 0.00 | 0.00 | 0.00 | 60 | 1013.2 |
| 20260508095040 | 43 | 0 | 6.0 | 11.0 | 0.00 | 0.00 | 0.00 | 60 | 1013.0 |
| 20260508094526 | 43 | 0 | 6.0 | 11.0 | 0.00 | 0.00 | 0.00 | 59 | 1013.0 |
| 20260508094022 | 43 | 0 | 6.0 | 11.0 | 0.00 | 0.00 | 0.00 | 60 | 1013.1 |
| 20260508093508 | 43 | 0 | 6.0 | 11.0 | 0.00 | 0.00 | 0.00 | 60 | 1013.0 |
| 20260508092959 | 43 | 0 | 5.0 | 10.0 | 0.00 | 0.00 | 0.00 | 60 | 1012.9 |
| 20260508092448 | 43 | 0 | 6.0 | 11.0 | 0.00 | 0.00 | 0.00 | 61 | 1012.6 |
| 20260508091938 | 43 | 0 | 5.0 | 11.0 | 0.00 | 0.00 | 0.00 | 61 | 1012.7 |
| 20260508090918 | 43 | 0 | 7.0 | 11.0 | 0.00 | 0.00 | 0.00 | 60 | 1012.5 |
| 20260508090408 | 43 | 0 | 5.0 | 11.0 | 0.00 | 0.00 | 0.00 | 61 | 1012.7 |
| 20260508085347 | 43 | 0 | 6.0 | 10.0 | 0.00 | 0.00 | 0.00 | 61 | 1012.5 |
| 20260508084837 | 44 | 0 | 6.0 | 10.0 | 0.00 | 0.00 | 0.00 | 60 | 1012.2 |
| 20260508084328 | 44 | 0 | 6.0 | 10.0 | 0.00 | 0.00 | 0.00 | 59 | 1012.4 |
| 20260508083817 | 44 | 0 | 6.0 | 10.0 | 0.00 | 0.00 | 0.00 | 58 | 1012.3 |
| 20260508083308 | 44 | 0 | 6.0 | 10.0 | 0.00 | 0.00 | 0.00 | 57 | 1012.2 |
| 20260508081738 | 44 | 0 | 4.0 | 8.0 | 0.00 | 0.00 | 0.00 | 59 | 1012.6 |
| 20260508081227 | 44 | 0 | 4.0 | 10.0 | 0.00 | 0.00 | 0.00 | 58 | 1012.6 |
| 20260508080716 | 44 | 0 | 5.0 | 10.0 | 0.00 | 0.00 | 0.00 | 57 | 1012.6 |
| 20260508080207 | 44 | 0 | 5.0 | 8.0 | 0.00 | 0.00 | 0.00 | 57 | 1012.5 |
| 20260508075657 | 44 | 0 | 4.0 | 8.0 | 0.00 | 0.00 | 0.00 | 57 | 1012.4 |
| 20260508075146 | 44 | 0 | 4.0 | 10.0 | 0.00 | 0.00 | 0.00 | 57 | 1012.6 |
| 20260508074126 | 44 | 0 | 4.0 | 7.0 | 0.00 | 0.00 | 0.00 | 57 | 1012.4 |
| 20260508073616 | 44 | 0 | 3.0 | 5.0 | 0.00 | 0.00 | 0.00 | 58 | 1012.3 |
| 20260508072555 | 46 | 0 | 2.0 | 9.0 | 0.00 | 0.00 | 0.00 | 54 | 1012.5 |
| 20260508072045 | 47 | 0 | 5.0 | 10.0 | 0.00 | 0.00 | 0.00 | 52 | 1012.4 |
| 20260508071535 | 47 | 0 | 6.0 | 10.0 | 0.00 | 0.00 | 0.00 | 50 | 1012.4 |
| 20260508071026 | 48 | 0 | 7.0 | 12.0 | 0.00 | 0.00 | 0.00 | 50 | 1012.3 |
| 20260508070515 | 48 | 0 | 6.0 | 13.0 | 0.00 | 0.00 | 0.00 | 48 | 1012.2 |
| 20260508070005 | 49 | 0 | 8.0 | 16.0 | 0.00 | 0.00 | 0.00 | 48 | 1012.1 |
| 20260508065455 | 49 | 0 | 8.0 | 16.0 | 0.00 | 0.00 | 0.00 | 47 | 1012.0 |
| 20260508064950 | 48 | 0 | 8.0 | 15.0 | 0.00 | 0.00 | 0.00 | 47 | 1012.1 |
| 20260508064435 | 48 | 0 | 9.0 | 15.0 | 0.00 | 0.00 | 0.00 | 48 | 1012.1 |
| 20260508063925 | 48 | 0 | 9.0 | 15.0 | 0.00 | 0.00 | 0.00 | 48 | 1012.3 |
| 20260508063415 | 48 | 0 | 9.0 | 15.0 | 0.00 | 0.00 | 0.00 | 48 | 1012.1 |
| 20260508062904 | 48 | 0 | 10.0 | 15.0 | 0.00 | 0.00 | 0.00 | 48 | 1011.9 |
| 20260508062354 | 48 | 0 | 8.0 | 15.0 | 0.00 | 0.00 | 0.00 | 48 | 1012.0 |
| 20260508061846 | 48 | 0 | 8.0 | 13.0 | 0.00 | 0.00 | 0.00 | 49 | 1012.0 |
| 20260508060212 | 48 | 0 | 7.0 | 0.0 | 0.00 | 0.00 | 0.00 | 49 | 1012.4 |
| 20260508055955 | 48 | 0 | 8.0 | 15.0 | 0.00 | 0.00 | 0.00 | 49 | 1012.5 |
| 20260508055445 | 49 | 0 | 8.0 | 15.0 | 0.00 | 0.00 | 0.00 | 49 | 1012.4 |
| 20260508054934 | 49 | 0 | 7.0 | 14.0 | 0.00 | 0.00 | 0.00 | 47 | 1012.5 |
| 20260508054425 | 49 | 0 | 8.0 | 15.0 | 0.00 | 0.00 | 0.00 | 47 | 1012.4 |
| 20260508053404 | 49 | 0 | 9.0 | 15.0 | 0.00 | 0.00 | 0.00 | 48 | 1012.4 |
| 20260508052855 | 49 | 0 | 8.0 | 15.0 | 0.00 | 0.00 | 0.00 | 48 | 1012.5 |
| 20260508052344 | 49 | 0 | 8.0 | 15.0 | 0.00 | 0.00 | 0.00 | 47 | 1012.2 |
| 20260508051834 | 48 | 0 | 9.0 | 17.0 | 0.00 | 0.00 | 0.00 | 49 | 1012.3 |
| 20260508050814 | 48 | 0 | 11.0 | 17.0 | 0.00 | 0.00 | 0.00 | 49 | 1012.5 |
| 20260508050304 | 48 | 0 | 11.0 | 17.0 | 0.00 | 0.00 | 0.00 | 49 | 1012.5 |
| 20260508045244 | 48 | 0 | 11.0 | 17.0 | 0.00 | 0.00 | 0.00 | 51 | 1012.6 |
| 20260508044733 | 48 | 0 | 10.0 | 17.0 | 0.00 | 0.00 | 0.00 | 51 | 1012.6 |
| 20260508044224 | 47 | 0 | 8.0 | 14.0 | 0.00 | 0.00 | 0.00 | 52 | 1012.5 |
| 20260508043714 | 47 | 0 | 8.0 | 13.0 | 0.00 | 0.00 | 0.00 | 52 | 1012.8 |
| 20260508043205 | 47 | 0 | 7.0 | 14.0 | 0.00 | 0.00 | 0.00 | 52 | 1013.0 |
| 20260508042653 | 47 | 0 | 7.0 | 14.0 | 0.00 | 0.00 | 0.00 | 53 | 1013.0 |
| 20260508042145 | 47 | 0 | 8.0 | 14.0 | 0.00 | 0.00 | 0.00 | 53 | 1013.0 |
| 20260508041633 | 48 | 0 | 6.0 | 14.0 | 0.00 | 0.00 | 0.00 | 53 | 1013.1 |
| 20260508041124 | 47 | 0 | 8.0 | 12.0 | 0.00 | 0.00 | 0.00 | 53 | 1013.0 |
| 20260508040113 | 46 | 0 | 6.0 | 11.0 | 0.00 | 0.00 | 0.00 | 57 | 1012.6 |
| 20260508035553 | 46 | 0 | 4.0 | 9.0 | 0.00 | 0.00 | 0.00 | 57 | 1012.5 |
| 20260508035042 | 46 | 0 | 3.0 | 10.0 | 0.00 | 0.00 | 0.00 | 58 | 1012.7 |
| 20260508034023 | 46 | 0 | 6.0 | 11.0 | 0.00 | 0.00 | 0.00 | 57 | 1012.6 |
| 20260508033002 | 46 | 0 | 5.0 | 9.0 | 0.00 | 0.00 | 0.00 | 58 | 1012.6 |
| 20260508032452 | 46 | 0 | 5.0 | 10.0 | 0.00 | 0.00 | 0.00 | 58 | 1012.3 |
| 20260508031942 | 46 | 0 | 5.0 | 10.0 | 0.00 | 0.00 | 0.00 | 59 | 1012.3 |
| 20260508031432 | 46 | 0 | 4.0 | 8.0 | 0.00 | 0.00 | 0.00 | 59 | 1012.3 |
| 20260508030922 | 46 | 0 | 4.0 | 8.0 | 0.00 | 0.00 | 0.00 | 58 | 1012.2 |
| 20260508030411 | 46 | 0 | 4.0 | 8.0 | 0.00 | 0.00 | 0.00 | 58 | 1011.8 |
| 20260508025902 | 45 | 0 | 4.0 | 7.0 | 0.00 | 0.00 | 0.00 | 60 | 1011.8 |
| 20260508025352 | 45 | 0 | 4.0 | 6.0 | 0.00 | 0.00 | 0.00 | 60 | 1011.5 |
| 20260508024841 | 45 | 0 | 3.0 | 6.0 | 0.00 | 0.00 | 0.00 | 60 | 1011.4 |
| 20260508024331 | 44 | 0 | 4.0 | 6.0 | 0.00 | 0.00 | 0.00 | 60 | 1011.4 |
| 20260508023821 | 42 | 0 | 4.0 | 6.0 | 0.00 | 0.00 | 0.00 | 63 | 1011.2 |
| 20260508023311 | 42 | 0 | 4.0 | 6.0 | 0.00 | 0.00 | 0.00 | 66 | 1011.1 |
| 20260508022801 | 42 | 0 | 4.0 | 5.0 | 0.00 | 0.00 | 0.00 | 66 | 1011.0 |
| 20260508022251 | 42 | 0 | 4.0 | 5.0 | 0.00 | 0.00 | 0.00 | 66 | 1011.0 |
| 20260508021740 | 43 | 0 | 3.0 | 5.0 | 0.00 | 0.00 | 0.00 | 64 | 1010.9 |
| 20260508021231 | 44 | 0 | 3.0 | 5.0 | 0.00 | 0.00 | 0.00 | 61 | 1011.0 |
| 20260508020720 | 44 | 0 | 3.0 | 5.0 | 0.00 | 0.00 | 0.00 | 59 | 1011.1 |
| 20260508020210 | 44 | 0 | 2.0 | 5.0 | 0.00 | 0.00 | 0.00 | 61 | 1011.1 |
| 20260508015700 | 45 | 0 | 3.0 | 6.0 | 0.00 | 0.00 | 0.00 | 60 | 1011.2 |
| 20260508015150 | 44 | 0 | 4.0 | 6.0 | 0.00 | 0.00 | 0.00 | 59 | 1011.4 |
| 20260508014129 | 42 | 0 | 2.0 | 4.0 | 0.00 | 0.00 | 0.00 | 66 | 1011.4 |
| 20260508013620 | 42 | 0 | 2.0 | 4.0 | 0.00 | 0.00 | 0.00 | 68 | 1011.4 |
| 20260508013109 | 43 | 0 | 2.0 | 4.0 | 0.00 | 0.00 | 0.00 | 65 | 1011.2 |
| 20260508011538 | 42 | 0 | 2.0 | 2.0 | 0.00 | 0.00 | 0.00 | 65 | 1011.0 |
| 20260508011029 | 42 | 0 | 1.0 | 3.0 | 0.00 | 0.00 | 0.00 | 67 | 1011.1 |
| 20260508005458 | 43 | 0 | 2.0 | 3.0 | 0.00 | 0.00 | 0.00 | 64 | 1011.1 |
| 20260508004438 | 43 | 0 | 2.0 | 3.0 | 0.00 | 0.00 | 0.00 | 63 | 1010.8 |
| 20260508003930 | 45 | 0 | 2.0 | 3.0 | 0.00 | 0.00 | 0.00 | 61 | 1010.9 |
| 20260508003418 | 45 | 0 | 2.0 | 3.0 | 0.00 | 0.00 | 0.00 | 59 | 1010.5 |
| 20260508002908 | 45 | 0 | 1.0 | 3.0 | 0.00 | 0.00 | 0.00 | 59 | 1010.3 |
| 20260508002357 | 45 | 0 | 1.0 | 3.0 | 0.00 | 0.00 | 0.00 | 61 | 1010.2 |
| 20260508001848 | 45 | 0 | 1.0 | 3.0 | 0.00 | 0.00 | 0.00 | 61 | 1010.7 |
| 20260508001339 | 44 | 0 | 2.0 | 3.0 | 0.00 | 0.00 | 0.00 | 60 | 1010.8 |
| 20260508000319 | 44 | 0 | 2.0 | 3.0 | 0.00 | 0.00 | 0.00 | 63 | 1010.7 |
| 20260507235258 | 45 | 0 | 2.0 | 4.0 | 0.00 | 0.00 | 0.00 | 61 | 1010.3 |
| 20260507234746 | 46 | 0 | 2.0 | 3.0 | 0.00 | 0.00 | 0.00 | 59 | 1010.1 |
| 20260507234237 | 47 | 0 | 2.0 | 3.0 | 0.00 | 0.00 | 0.00 | 56 | 1009.9 |
| 20260507233728 | 47 | 0 | 2.0 | 3.0 | 0.00 | 0.00 | 0.00 | 55 | 1010.1 |
| 20260507233217 | 48 | 0 | 1.0 | 4.0 | 0.00 | 0.00 | 0.00 | 53 | 1009.9 |
| 20260507232157 | 49 | 0 | 3.0 | 5.0 | 0.00 | 0.00 | 0.00 | 51 | 1009.9 |
| 20260507231647 | 50 | 0 | 2.0 | 6.0 | 0.00 | 0.00 | 0.00 | 50 | 1010.0 |
| 20260507231136 | 51 | 0 | 3.0 | 7.0 | 0.00 | 0.00 | 0.00 | 48 | 1009.8 |
| 20260507230627 | 52 | 0 | 4.0 | 8.0 | 0.00 | 0.00 | 0.00 | 46 | 1009.9 |
| 20260507230117 | 52 | 0 | 4.0 | 8.0 | 0.00 | 0.00 | 0.00 | 44 | 1009.9 |
| 20260507225606 | 52 | 0 | 4.0 | 8.0 | 0.00 | 0.00 | 0.00 | 44 | 1009.8 |